Location: Çayiçi
(36.4667°N, 30.2333°E)
Time: 11:55:41
(UTC+00:00)

Daily predictions for brighter satellites

Satellite Brightness Start Highest point End
(mag) Time Altitude Azimuth Time Altitude Azimuth Time Altitude Azimuth
Radarsat Rocket 4.2 15:44:45 10° SSE 15:50:45 64° ENE 15:57:29 10° N
Cosmos 1726 Rocket 3.5 15:50:03 10° N 15:54:23 75° E 15:58:41 10° SSE
Cosmos 2322 3.8 15:50:00 10° S 15:55:37 63° ESE 16:01:16 10° NNE
Atlas Centaur 2 3.4 15:50:57 10° WSW 15:57:52 55° S 16:05:54 10° ESE
Cosmos 468 Rocket 4.4 15:53:45 10° NNW 15:58:52 68° WSW 16:03:55 10° S
ATLAS 2AS CENTAUR R/B 3.4 15:53:12 10° NW 15:59:53 59° WSW 16:06:15 10° SSE
Cosmos 540 Rocket 3.6 15:57:30 10° NNW 16:02:39 81° WSW 16:07:44 10° SSE
Nadezhda 2 Rocket 4.4 15:57:15 10° N 16:03:24 81° E 16:09:30 10° S
Cosmos 1626 Rocket 4.2 16:01:16 10° SSE 16:05:08 33° E 16:09:02 10° NNE
Cosmos 1844 Rocket 3.3 16:04:02 10° NNW 16:09:32 61° WSW 16:14:59 10° S
NOAA 6 4.3 16:05:32 10° S 16:10:40 76° WSW 16:15:51 10° NNW
CZ-4 R/B 2.9 16:13:13 10° ESE 16:15:48 17° ENE 16:18:22 10° NNE
Cosmos 1340 2.5 16:12:20 10° N 16:16:00 75° E 16:19:39 10° SSE
CZ-4 R/B 4.4 16:12:49 10° SSE 16:16:54 69° ENE 16:21:00 10° N
GPS 2-04 Rocket1 4.3 16:14:23 10° SSW 16:17:08 20° SSE 16:19:41 11° ESE
IUS-9 SRM-1 4.4 16:21:46 10° SW 16:24:06 19° SSE 16:28:28 10° ESE
Cosmos 841 Rocket 3.5 16:19:15 10° NNW 16:24:32 88° WSW 16:29:44 10° SSE
RESURS DK-1 4.0 16:20:46 10° NW 16:24:37 39° WSW 16:28:26 10° S
Cosmos 1814 Rocket 4.4 16:19:37 10° N 16:24:40 41° ENE 16:29:40 10° SE
Cosmos 2315 Rocket 4.4 16:18:56 10° SSE 16:24:44 40° E 16:30:35 10° NNE
Cosmos 2058 3.8 16:26:38 10° SSE 16:30:10 27° E 16:33:43 10° NNE
Cosmos 2219 Rocket 3.1 16:25:38 10° SW 16:31:01 50° WNW 16:36:28 10° N
CZ-4B R/B 3.6 16:26:18 10° SE 16:31:15 39° ENE 16:36:19 10° N
PSLV R/B 3.9 16:28:03 10° SSE 16:31:32 44° ENE 16:35:06 10° N
Cosmos 1386 Rocket 4.4 16:25:32 10° N 16:31:34 71° E 16:37:39 10° SSE
H-2A R/B 3.6 16:30:32 10° WSW 16:32:42 13° SW 16:34:08 10° S
SL-24 R/B - RUBIN 2 4.1 16:29:06 10° S 16:33:02 36° ESE 16:35:53 17° NE
Cosmos 1869 4.1 16:29:39 10° NNW 16:33:31 54° W 16:37:24 10° S
Okean O Rocket 2.6 16:30:30 10° SE 16:34:07 25° ENE 16:37:45 10° NNE
YAOGAN 1 2.7 16:30:35 10° SSE 16:34:42 47° ENE 16:38:51 10° N
CZ-4B DEB 4.2 16:31:20 10° SSE 16:36:46 89° ENE 16:42:16 10° NNW
BREEZE-M DEB (TANK) 4.0 16:38:19 10° NW 16:42:01 40° NNE 16:47:25 20° E
Cosmos 1745 Rocket 3.9 16:35:50 10° N 16:42:02 80° E 16:48:11 10° S
Okean 1-7 Rocket 3.6 16:39:20 10° S 16:43:44 86° W 16:48:14 10° N
BlueWalker 3 3.6 16:41:36 10° NNW 16:44:25 19° NNE 16:44:51 18° NE
Cosmos 2237 Rocket 2.5 16:41:44 10° S 16:47:06 45° ESE 16:51:59 13° NE
Cosmos 2058 Rocket 4.2 16:43:44 10° NNW 16:47:59 47° W 16:52:15 10° SSW
Cosmos-2242 3.4 16:45:25 10° N 16:49:23 38° E 16:53:20 10° SSE
Cosmos 1606 2.5 16:46:00 10° N 16:49:50 85° E 16:53:37 10° S
Cosmos 1356 3.0 16:48:00 10° N 16:51:02 59° E 16:54:01 10° SSE
Cosmos 968 Rocket 3.8 16:46:54 10° SSW 16:52:04 68° WNW 16:57:19 10° NNE
Cosmos 1400 Rocket 3.0 16:51:49 10° SSE 16:55:28 42° E 16:56:31 34° NE
Cosmos 2278 Rocket 2.7 16:52:11 10° N 16:57:22 35° ENE 16:59:05 29° E
Cosmos 1980 3.7 16:52:49 10° S 16:58:21 62° ESE 17:03:18 13° NNE
Cosmos 1709 Rocket 3.8 16:53:36 10° N 16:59:42 69° E 17:05:45 10° SSE
Lacrosse 5 rocket 3.5 16:59:57 10° WNW 17:02:50 22° WSW 17:05:48 10° S
USA 81 4.2 16:57:36 10° S 17:02:50 74° W 17:08:07 10° N
MOS 1-B 4.3 17:01:30 10° SSE 17:07:18 90° WSW 17:13:08 10° NNW
Cosmos 2208 Rocket 4.2 17:02:48 10° N 17:07:49 46° ENE 17:09:18 36° ESE
Cosmos 1943 Rocket 4.1 17:05:42 10° NNE 17:07:05 14° NNE 17:07:05 14° NNE
Cosmos 1602 Rocket 4.1 17:09:45 10° SSW 17:13:59 57° W 17:18:14 10° N
Cosmos 1570 Rocket 3.9 17:08:43 10° NNW 17:14:03 71° ENE 17:18:29 15° SSE
IGS 5A 4.2 17:15:50 36° NNE 17:15:50 36° NNE 17:18:31 10° N
Cosmos 1356 Rocket 3.8 17:11:29 10° SSW 17:15:24 60° W 17:19:19 10° N
Haruka 3.0 17:12:12 10° WSW 17:15:32 41° S 17:15:58 38° SSE
Iridium 2 4.1 17:12:26 10° NNW 17:16:00 57° W 17:19:33 10° S
COSMOS 2428 4.2 17:13:42 10° SW 17:18:48 34° WNW 17:23:57 10° N
NOSS 0 Rocket 4.3 17:16:05 10° SSW 17:22:14 64° WNW 17:28:28 10° NNE
SL-16 R/B 4.2 17:19:50 10° SSE 17:20:36 13° SSE 17:20:36 13° SSE
Spot 1 4.5 17:21:42 10° N 17:25:41 57° WNW 17:29:45 10° SSW
USA 215 3.2 17:22:31 25° SE 17:26:38 88° SW 17:33:14 10° NW
SJ 16-02 1.9 17:25:21 10° S 17:28:27 45° S 17:28:27 45° S
SL-4 R/B 2.7 17:30:26 10° NW 17:32:55 42° NW 17:32:55 42° NW
Cosmos 1812 Rocket 4.3 17:31:31 10° NNW 17:35:52 54° W 17:40:09 10° S
Atlas Centaur 2 3.6 17:39:44 10° W 17:47:10 47° SSW 17:49:51 36° SSE
Meteor 2-2 Rocket 4.2 17:41:27 10° N 17:47:10 83° W 17:51:12 21° S
CZ-4 R/B 3.0 17:46:42 10° SSW 17:50:24 33° W 17:54:04 10° NNW
Okean O Rocket 3.7 18:06:44 10° SSW 18:10:19 25° W 18:13:58 10° NW
H-2A R/B 3.6 18:15:33 10° SW 18:20:17 54° S 18:20:17 54° S
Milstar 3 4.1 18:19:05 10° SW 18:30:23 42° S 18:30:23 42° S
Cosmos 2237 Rocket 4.2 18:26:51 10° WSW 18:31:20 24° WNW 18:33:55 18° NNW
Cosmos 2278 Rocket 3.9 18:36:30 10° NW 18:41:02 28° W 18:41:02 28° W
ATLAS 5 CENTAUR R/B 4.4 18:22:49 10° NW 18:51:28 76° NNE 18:51:28 76° NNE
